Regional Weather Roundup
Issued by NWS

Home | Current Version | Previous Version | Graphics & Text | Print | Product List | Glossary On
Versions: 1 2 3 4 5 6 7 8 9 10 11 12 13 14 15 16 17 18 19 20 21 22 23 24 25 26 27 28 29 30 31 32 33 34 35 36 37 38 39 40 41 42 43 44 45 46 47 48 49 50
000
ASUS43 KOAX 250102
RWRNE

WEATHER ROUNDUP FOR NEBRASKA
NATIONAL WEATHER SERVICE OMAHA NE
800 PM CDT FRI APR 24 2015

NOTES: SATELLITE DATA IS BEING USED TO AUGMENT CLOUD COVER ABOVE
       12000 FEET.
       "FAIR" INDICATES FEW OR NO CLOUDS BELOW 12,000 FEET WITH NO
       SIGNIFICANT WEATHER AND/OR OBSTRUCTIONS TO VISIBILITY.

  * THESE STATIONS DO NOT REPORT WEATHER SUCH AS RAIN...SNOW OR FOG.

NEZ001>004-019>022-054>056-250200-
NEBRASKA PANHANDLE

CITY           SKY/WX    TMP DP  RH WIND       PRES   REMARKS
SCOTTSBLUFF    LGT RAIN  57  42  57 SW20G29   29.60R
ALLIANCE       CLOUDY    55  44  66 N9        29.56R
CHADRON        CLOUDY    57  44  62 NE13      29.57R
SIDNEY         CLOUDY    57  38  48 NW17G29   29.60R
$$

NEZ057>060-069>072-079>082-250200-
SOUTHWEST NEBRASKA

CITY           SKY/WX    TMP DP  RH WIND       PRES   REMARKS
IMPERIAL       LGT RAIN  61  37  41 NW23G35   29.53F
MCCOOK         CLOUDY    64  52  64 NE5       29.48F
$$

NEZ005>010-023>029-035>040-094-250200-
NORTH CENTRAL NEBRASKA

CITY           SKY/WX    TMP DP  RH WIND       PRES   REMARKS
VALENTINE      CLOUDY    70  39  32 S8        29.46F
AINSWORTH      CLOUDY    65  43  45 SE10      29.48F
BROKEN BOW     MOCLDY    65  53  65 SE15      29.50R
ORD            MOCLDY    64  53  67 SE8       29.50S
$$

NEZ041-046>049-061>064-073>077-083>087-250200-
SOUTH CENTRAL NEBRASKA

CITY           SKY/WX    TMP DP  RH WIND       PRES   REMARKS
GRAND ISLAND   CLOUDY    60  55  83 SE13      29.53F
AURORA         CLOUDY    60  57  88 SE10      29.52F
HASTINGS       CLOUDY    59  56  89 SE10      29.51F
KEARNEY *      CLOUDY    61  54  77 SE13      29.52F
YORK           CLOUDY    59  55  88 SE12      29.53F
$$

NEZ011>018-030>034-042>045-250200-
NORTHEAST NEBRASKA

CITY           SKY/WX    TMP DP  RH WIND       PRES   REMARKS
NORFOLK        CLOUDY    65  55  70 SE15      29.52F
ALBION         CLOUDY    63  54  72 SE15      29.53S
BLAIR          CLOUDY    60  50  70 SE10G16   29.57F
COLUMBUS *     CLOUDY    61  52  72 S13       29.55F
FREMONT        CLOUDY    62  52  70 SE12      29.55F
TEKAMAH        MOCLDY    64  52  64 SE18      29.56F
$$

NEZ050>053-065>068-078-088>093-250200-
SOUTHEAST NEBRASKA

CITY           SKY/WX    TMP DP  RH WIND       PRES   REMARKS
LINCOLN        CLOUDY    60  54  80 SE9       29.56F
OMAHA EPPLEY   CLOUDY    61  52  72 SE16      29.57F
BEATRICE       CLOUDY    59  55  84 E7        29.54F
FALLS CITY     CLOUDY    61  53  75 E9        29.57F
NEBRASKA CITY  CLOUDY    58  50  75 SE8       29.57F
PLATTSMOUTH    CLOUDY    57  52  83 SE10      29.58F
$$

NEZ044-045-051>053-067-250200-
OMAHA AREA

CITY           SKY/WX    TMP DP  RH WIND       PRES   REMARKS
OMAHA EPPLEY   CLOUDY    61  52  72 SE16      29.57F
BLAIR          CLOUDY    60  50  70 SE10G16   29.57F
FREMONT        CLOUDY    62  52  70 SE12      29.55F
OFFUTT AFB     CLOUDY    59  53  80 SE14      29.56F
PLATTSMOUTH    CLOUDY    57  52  83 SE10      29.58F
WAHOO          CLOUDY    61  51  70 SE13      29.55F
$$


USA.gov is the U.S. government's official web portal to all federal, state and local government web resources and services.